Location: Black Swamp Observatory
(41.3920°N, 84.1250°W)
Time: 02:36:18
(UTC-04:00)

Transit 4A - Pass Details

Date: 01 February 2022
Orbit: 863 x 981 km, 66.8° (Epoch: 27 May)

Event Time Altitude Azimuth Distance (km) Brightness Sun altitude
Rises 04:35:25 0° 157° (SSE) 3,486 11.1 -36.3°
Reaches altitude 10° 04:38:59 10° 136° (SE) 2,576 10.6 -35.6°
Maximum altitude 04:42:15 15° 102° (ESE) 2,246 10.5 -35.0°
Drops below altitude 10° 04:45:34 10° 69° (ENE) 2,631 11.0 -34.4°
Sets 04:49:15 0° 47° (NE) 3,607 11.7 -33.7°
